{"data":{"norad_id":58783,"epoch":"2026-05-25T00:23:00.069792Z","epoch_age_seconds":66882,"freshness":"FRESH","line1":"1 58783U 24011U   26145.01597303  .00001693  00000+0  61233-4 0  9992","line2":"2 58783  53.1617   3.2425 0001159  71.1232 288.9896 15.34390934132179","mean_motion":15.34390934,"eccentricity":0.0001159,"inclination_deg":53.1617,"raan_deg":3.2425,"arg_perigee_deg":71.1232,"mean_anomaly_deg":288.9896,"bstar":6.1233e-5,"rev_number":13217,"period_min":93.848312583943,"perigee_km":461.93732989545,"apogee_km":463.52304290926,"semimajor_km":6840.8671864024,"source":"CELESTRAK","updated_at":"2026-05-25T13:38:18.747481Z"}}